"Period start","avg(HW err(1)/warn(2) (#))","avg(Visibility (m))","avg(Weather code (#))","avg(Precip intensity (mm/h))","min(HW err(1)/warn(2) (#))","max(HW err(1)/warn(2) (#))","std(HW err(1)/warn(2) (#))","med(HW err(1)/warn(2) (#))","min(Visibility (m))","max(Visibility (m))","std(Visibility (m))","med(Visibility (m))","min(Weather code (#))","max(Weather code (#))","std(Weather code (#))","med(Weather code (#))","min(Precip intensity (mm/h))","max(Precip intensity (mm/h))","std(Precip intensity (mm/h))","med(Precip intensity (mm/h))"
2016-05-05 00:00:00,2,37542,0,0.00,2,2,0,2,25509,46682,5957,37669,0,0,0,0,0.00,0.00,0.00,0.00
2016-05-05 00:10:00,2,28936,0,0.00,2,2,0,2,23561,35143,3335,28724,0,0,0,0,0.00,0.00,0.00,0.00
2016-05-05 00:20:00,2,37410,0,0.00,2,2,0,2,30817,50000,6527,34612,0,0,0,0,0.00,0.00,0.00,0.00
2016-05-05 00:30:00,2,36038,0,0.00,2,2,0,2,25027,50000,8307,34937,0,0,0,0,0.00,0.00,0.00,0.00
2016-05-05 00:40:00,2,36396,0,0.00,2,2,0,2,26820,50000,7475,34087,0,0,0,0,0.00,0.00,0.00,0.00
2016-05-05 00:50:00,2,33545,0,0.00,2,2,0,2,25393,50000,8204,29872,0,0,0,0,0.00,0.00,0.00,0.00
2016-05-05 01:00:00,2,41203,0,0.00,2,2,0,2,22351,50000,9342,44487,0,0,0,0,0.00,0.00,0.00,0.00
2016-05-05 01:10:00,2,42223,0,0.00,2,2,0,2,29285,50000,5709,43323,0,0,0,0,0.00,0.00,0.00,0.00
2016-05-05 01:20:00,2,38727,0,0.00,2,2,0,2,25612,50000,7810,39914,0,0,0,0,0.00,0.00,0.00,0.00
2016-05-05 01:30:00,2,44785,0,0.00,2,2,0,2,35168,50000,4523,45054,0,0,0,0,0.00,0.00,0.00,0.00
2016-05-05 01:40:00,2,40924,0,0.00,2,2,0,2,27804,50000,7888,42490,0,0,0,0,0.00,0.00,0.00,0.00
2016-05-05 01:50:00,2,41818,0,0.00,2,2,0,2,32582,50000,5676,40990,0,0,0,0,0.00,0.00,0.00,0.00
2016-05-05 02:00:00,2,45036,0,0.00,2,2,0,2,33211,50000,5084,47012,0,0,0,0,0.00,0.00,0.00,0.00
2016-05-05 02:10:00,2,42653,0,0.00,2,2,0,2,28792,50000,8019,47792,0,0,0,0,0.00,0.00,0.00,0.00
2016-05-05 02:20:00,2,41180,0,0.00,2,2,0,2,30690,50000,6325,41582,0,0,0,0,0.00,0.00,0.00,0.00
2016-05-05 02:30:00,2,46299,0,0.00,2,2,0,2,40835,50000,3520,46826,0,0,0,0,0.00,0.00,0.00,0.00
2016-05-05 02:40:00,2,37937,0,0.00,2,2,0,2,24321,50000,8032,37248,0,0,0,0,0.00,0.00,0.00,0.00
2016-05-05 02:50:00,2,47295,0,0.00,2,2,0,2,40754,50000,2761,47552,0,0,0,0,0.00,0.00,0.00,0.00
2016-05-05 03:00:00,2,46409,0,0.00,2,2,0,2,39827,50000,4443,50000,0,0,0,0,0.00,0.00,0.00,0.00
2016-05-05 03:10:00,2,44874,0,0.00,2,2,0,2,33281,50000,5468,46224,0,0,0,0,0.00,0.00,0.00,0.00
2016-05-05 03:20:00,2,46089,0,0.00,2,2,0,2,37706,50000,4707,49364,0,0,0,0,0.00,0.00,0.00,0.00
2016-05-05 03:30:00,2,43177,0,0.00,2,2,0,2,29572,50000,7074,44830,0,0,0,0,0.00,0.00,0.00,0.00
2016-05-05 03:40:00,2,42572,0,0.00,2,2,0,2,24614,50000,7585,45101,0,0,0,0,0.00,0.00,0.00,0.00
2016-05-05 03:50:00,2,44138,0,0.00,2,2,0,2,35557,50000,5586,46084,0,0,0,0,0.00,0.00,0.00,0.00
2016-05-05 04:00:00,2,35703,0,0.00,2,2,0,2,26245,48943,6204,35332,0,0,0,0,0.00,0.00,0.00,0.00
2016-05-05 04:10:00,2,45924,0,0.00,2,2,0,2,37806,50000,4082,47212,0,0,0,0,0.00,0.00,0.00,0.00
2016-05-05 04:20:00,2,47312,0,0.00,2,2,0,2,37263,50000,3933,49634,0,0,0,0,0.00,0.00,0.00,0.00
2016-05-05 04:30:00,2,44039,0,0.00,2,2,0,2,35507,50000,4283,45663,0,0,0,0,0.00,0.00,0.00,0.00
2016-05-05 04:40:00,2,44872,0,0.00,2,2,0,2,37098,50000,4806,45806,0,0,0,0,0.00,0.00,0.00,0.00
2016-05-05 04:50:00,2,45078,0,0.00,2,2,0,2,39548,49783,3182,45492,0,0,0,0,0.00,0.00,0.00,0.00
2016-05-05 05:00:00,2,42292,0,0.00,2,2,0,2,31679,49666,6424,43918,0,0,0,0,0.00,0.00,0.00,0.00
2016-05-05 05:10:00,2,38051,0,0.00,2,2,0,2,22681,48793,8950,36732,0,0,0,0,0.00,0.00,0.00,0.00
2016-05-05 05:20:00,2,41489,0,0.00,2,2,0,2,30408,48622,6791,43057,0,0,0,0,0.00,0.00,0.00,0.00
2016-05-05 05:30:00,2,42665,0,0.00,2,2,0,2,33663,50000,4723,42901,0,0,0,0,0.00,0.00,0.00,0.00
2016-05-05 05:40:00,2,41855,0,0.00,2,2,0,2,27292,50000,7485,44572,0,0,0,0,0.00,0.00,0.00,0.00
2016-05-05 05:50:00,2,39420,0,0.00,2,2,0,2,30637,50000,5118,40802,0,0,0,0,0.00,0.00,0.00,0.00
2016-05-05 06:00:00,2,39698,0,0.00,2,2,0,2,28295,45936,5480,42400,0,0,0,0,0.00,0.00,0.00,0.00
2016-05-05 06:10:00,2,46669,0,0.00,2,2,0,2,39229,50000,3928,48218,0,0,0,0,0.00,0.00,0.00,0.00
2016-05-05 06:20:00,2,20207,36,0.38,2,2,0,2,4917,50000,18241,10588,0,71,32,40,0.00,1.05,0.37,0.38
2016-05-05 06:30:00,2,7168,71,0.86,2,2,0,2,4365,9613,1508,7284,71,71,0,71,0.40,2.35,0.58,0.65
2016-05-05 06:40:00,2,15571,71,0.18,2,2,0,2,7950,20808,3939,16744,71,71,0,71,0.00,0.90,0.25,0.12
2016-05-05 06:50:00,2,10724,71,0.40,2,2,0,2,8586,18910,2794,10010,71,71,0,71,0.10,0.80,0.20,0.33
2016-05-05 07:00:00,2,15321,71,0.14,2,2,0,2,9516,22215,4061,14853,71,71,0,71,0.00,0.35,0.10,0.10
2016-05-05 07:10:00,2,7026,71,0.24,2,2,0,2,4741,12523,2101,6958,71,71,0,71,0.10,0.60,0.15,0.17
2016-05-05 07:20:00,2,3157,71,1.12,2,2,0,2,2317,4640,740,2914,71,71,0,71,0.50,1.90,0.43,1.07
2016-05-05 07:30:00,2,3594,71,1.65,2,2,0,2,2975,5295,686,3376,71,71,0,71,0.45,3.05,0.74,1.75
2016-05-05 07:40:00,2,4284,71,1.35,2,2,0,2,3338,5878,721,4084,71,71,0,71,0.55,2.10,0.47,1.25
2016-05-05 07:50:00,2,5688,71,1.06,2,2,0,2,4720,6521,681,5676,71,71,0,71,0.60,1.60,0.35,1.15
2016-05-05 08:00:00,2,10942,71,0.25,2,2,0,2,7851,16388,2877,9502,71,71,0,71,0.05,0.55,0.16,0.20
2016-05-05 08:10:00,2,19627,73,0.08,2,2,0,2,11558,28598,5265,18068,71,77,3,71,0.00,0.45,0.13,0.05
2016-05-05 08:20:00,2,14448,71,0.07,2,2,0,2,10952,18016,2543,14064,71,71,0,71,0.00,0.20,0.06,0.05
2016-05-05 08:30:00,2,28016,75,0.01,2,2,0,2,15512,40870,6372,27156,71,77,3,77,0.00,0.05,0.02,0.00
2016-05-05 08:40:00,2,25406,74,0.07,2,2,0,2,20069,28941,2634,25822,71,77,3,74,0.00,0.25,0.08,0.05
2016-05-05 08:50:00,2,16723,71,0.14,2,2,0,2,11265,29713,5031,17016,71,71,0,71,0.05,0.35,0.10,0.08
2016-05-05 09:00:00,2,31528,55,0.04,2,2,0,2,15805,45582,10674,29239,0,71,30,71,0.00,0.15,0.05,0.00
2016-05-05 09:10:00,2,47524,0,0.00,2,2,0,2,40244,50000,3157,48761,0,0,0,0,0.00,0.00,0.00,0.00
2016-05-05 09:20:00,2,49966,0,0.00,2,2,0,2,49785,50000,71,50000,0,0,0,0,0.00,0.00,0.00,0.00
2016-05-05 09:30:00,2,47235,0,0.00,2,2,0,2,40148,50000,3158,48186,0,0,0,0,0.00,0.00,0.00,0.00
2016-05-05 09:40:00,2,49238,0,0.00,2,2,0,2,47443,50000,978,50000,0,0,0,0,0.00,0.00,0.00,0.00
2016-05-05 09:50:00,2,49369,0,0.00,2,2,0,2,46526,50000,1233,50000,0,0,0,0,0.00,0.00,0.00,0.00
2016-05-05 10:00:00,2,47925,0,0.00,2,2,0,2,44435,50000,2233,48787,0,0,0,0,0.00,0.00,0.00,0.00
2016-05-05 10:10:00,2,43000,0,0.00,2,2,0,2,31618,50000,6575,45000,0,0,0,0,0.00,0.00,0.00,0.00
2016-05-05 10:20:00,2,48123,37,0.00,2,2,0,2,42983,50000,2575,49186,0,77,37,36,0.00,0.00,0.00,0.00
2016-05-05 10:30:00,2,49888,0,0.00,2,2,0,2,48883,50000,335,50000,0,0,0,0,0.00,0.00,0.00,0.00
2016-05-05 10:40:00,2,50000,0,0.00,2,2,0,2,50000,50000,0,50000,0,0,0,0,0.00,0.00,0.00,0.00
2016-05-05 10:50:00,2,49291,0,0.00,2,2,0,2,47731,50000,842,49698,0,0,0,0,0.00,0.00,0.00,0.00
2016-05-05 11:00:00,2,48922,0,0.00,2,2,0,2,44080,50000,1833,50000,0,0,0,0,0.00,0.00,0.00,0.00
2016-05-05 11:10:00,2,49137,0,0.00,2,2,0,2,44320,50000,1649,49764,0,0,0,0,0.00,0.00,0.00,0.00
2016-05-05 11:20:00,2,48578,0,0.00,2,2,0,2,42672,50000,2521,50000,0,0,0,0,0.00,0.00,0.00,0.00
2016-05-05 11:30:00,2,49306,0,0.00,2,2,0,2,46918,50000,1102,50000,0,0,0,0,0.00,0.00,0.00,0.00
2016-05-05 11:40:00,2,49818,0,0.00,2,2,0,2,49286,50000,256,50000,0,0,0,0,0.00,0.00,0.00,0.00
2016-05-05 11:50:00,2,49868,0,0.00,2,2,0,2,49103,50000,285,50000,0,0,0,0,0.00,0.00,0.00,0.00
2016-05-05 12:00:00,2,50000,0,0.00,2,2,0,2,50000,50000,0,50000,0,0,0,0,0.00,0.00,0.00,0.00
2016-05-05 12:10:00,2,50000,0,0.00,2,2,0,2,50000,50000,0,50000,0,0,0,0,0.00,0.00,0.00,0.00
2016-05-05 12:20:00,2,50000,0,0.00,2,2,0,2,50000,50000,0,50000,0,0,0,0,0.00,0.00,0.00,0.00
2016-05-05 12:30:00,2,49852,0,0.00,2,2,0,2,48515,50000,446,50000,0,0,0,0,0.00,0.00,0.00,0.00
2016-05-05 12:40:00,2,49856,0,0.00,2,2,0,2,48565,50000,430,50000,0,0,0,0,0.00,0.00,0.00,0.00
2016-05-05 12:50:00,2,50000,0,0.00,2,2,0,2,50000,50000,0,50000,0,0,0,0,0.00,0.00,0.00,0.00
2016-05-05 13:00:00,2,50000,0,0.00,2,2,0,2,50000,50000,0,50000,0,0,0,0,0.00,0.00,0.00,0.00
2016-05-05 13:10:00,2,49978,0,0.00,2,2,0,2,49782,50000,65,50000,0,0,0,0,0.00,0.00,0.00,0.00
2016-05-05 13:20:00,2,49986,0,0.00,2,2,0,2,49882,50000,35,50000,0,0,0,0,0.00,0.00,0.00,0.00
2016-05-05 13:30:00,2,50000,0,0.00,2,2,0,2,50000,50000,0,50000,0,0,0,0,0.00,0.00,0.00,0.00
2016-05-05 13:40:00,2,50000,0,0.00,2,2,0,2,50000,50000,0,50000,0,0,0,0,0.00,0.00,0.00,0.00
2016-05-05 13:50:00,2,49970,0,0.00,2,2,0,2,49702,50000,89,50000,0,0,0,0,0.00,0.00,0.00,0.00
2016-05-05 14:00:00,2,50000,0,0.00,2,2,0,2,50000,50000,0,50000,0,0,0,0,0.00,0.00,0.00,0.00
2016-05-05 14:10:00,2,49786,0,0.00,2,2,0,2,49145,50000,325,50000,0,0,0,0,0.00,0.00,0.00,0.00
2016-05-05 14:20:00,2,49828,0,0.00,2,2,0,2,48472,50000,456,50000,0,0,0,0,0.00,0.00,0.00,0.00
2016-05-05 14:30:00,2,49851,0,0.00,2,2,0,2,48715,50000,384,50000,0,0,0,0,0.00,0.00,0.00,0.00
2016-05-05 14:40:00,2,49139,0,0.00,2,2,0,2,45453,50000,1418,50000,0,0,0,0,0.00,0.00,0.00,0.00
2016-05-05 14:50:00,2,49912,0,0.00,2,2,0,2,49120,50000,264,50000,0,0,0,0,0.00,0.00,0.00,0.00
2016-05-05 15:00:00,2,49458,0,0.00,2,2,0,2,48625,50000,571,49652,0,0,0,0,0.00,0.00,0.00,0.00
2016-05-05 15:10:00,2,48578,0,0.00,2,2,0,2,42066,50000,2303,49215,0,0,0,0,0.00,0.00,0.00,0.00
2016-05-05 15:20:00,2,47611,0,0.00,2,2,0,2,41045,50000,2658,48488,0,0,0,0,0.00,0.00,0.00,0.00
2016-05-05 15:30:00,2,46681,0,0.00,2,2,0,2,39553,50000,3087,48153,0,0,0,0,0.00,0.00,0.00,0.00
2016-05-05 15:40:00,2,47787,0,0.00,2,2,0,2,44685,50000,2118,48616,0,0,0,0,0.00,0.00,0.00,0.00
2016-05-05 15:50:00,2,47291,0,0.00,2,2,0,2,41059,50000,2748,47848,0,0,0,0,0.00,0.00,0.00,0.00
2016-05-05 16:00:00,2,47666,0,0.00,2,2,0,2,43424,50000,2430,48936,0,0,0,0,0.00,0.00,0.00,0.00
2016-05-05 16:10:00,2,40315,0,0.00,2,2,0,2,36725,45562,3473,38197,0,0,0,0,0.00,0.00,0.00,0.00
2016-05-05 16:20:00,2,45632,0,0.00,2,2,0,2,39259,49674,3302,47228,0,0,0,0,0.00,0.00,0.00,0.00
2016-05-05 16:30:00,2,45359,0,0.00,2,2,0,2,40660,49912,2875,44894,0,0,0,0,0.00,0.00,0.00,0.00
2016-05-05 16:40:00,2,45702,0,0.00,2,2,0,2,41906,48809,2752,46818,0,0,0,0,0.00,0.00,0.00,0.00
2016-05-05 16:50:00,2,44805,0,0.00,2,2,0,2,38165,50000,4317,46228,0,0,0,0,0.00,0.00,0.00,0.00
2016-05-05 17:00:00,2,46372,0,0.00,2,2,0,2,40315,50000,3184,47242,0,0,0,0,0.00,0.00,0.00,0.00
2016-05-05 17:10:00,2,46151,0,0.00,2,2,0,2,40711,50000,3056,46554,0,0,0,0,0.00,0.00,0.00,0.00
2016-05-05 17:20:00,2,42435,0,0.00,2,2,0,2,37760,48361,3478,42072,0,0,0,0,0.00,0.00,0.00,0.00
2016-05-05 17:30:00,2,44134,0,0.00,2,2,0,2,35599,50000,5134,44690,0,0,0,0,0.00,0.00,0.00,0.00
2016-05-05 17:40:00,2,47764,0,0.00,2,2,0,2,41134,50000,2684,48750,0,0,0,0,0.00,0.00,0.00,0.00
2016-05-05 17:50:00,2,32228,0,0.00,2,2,0,2,22797,41912,6610,31502,0,0,0,0,0.00,0.00,0.00,0.00
2016-05-05 18:00:00,2,29680,0,0.00,2,2,0,2,23624,40121,5516,27840,0,0,0,0,0.00,0.00,0.00,0.00
2016-05-05 18:10:00,2,30926,0,0.00,2,2,0,2,24991,40985,4973,29919,0,0,0,0,0.00,0.00,0.00,0.00
2016-05-05 18:20:00,2,46761,0,0.00,2,2,0,2,42541,50000,2322,46920,0,0,0,0,0.00,0.00,0.00,0.00
2016-05-05 18:30:00,2,37646,0,0.00,2,2,0,2,26856,46652,7248,37782,0,0,0,0,0.00,0.00,0.00,0.00
2016-05-05 18:40:00,2,43438,0,0.00,2,2,0,2,36416,46855,3222,44730,0,0,0,0,0.00,0.00,0.00,0.00
2016-05-05 18:50:00,2,40295,0,0.00,2,2,0,2,37215,46145,2950,40196,0,0,0,0,0.00,0.00,0.00,0.00
2016-05-05 19:00:00,2,40484,0,0.00,2,2,0,2,32883,45816,3949,40914,0,0,0,0,0.00,0.00,0.00,0.00
2016-05-05 19:10:00,2,21521,53,0.07,2,2,0,2,6437,45795,13528,16618,0,78,35,74,0.00,0.25,0.10,0.00
2016-05-05 19:20:00,2,15888,71,0.52,2,2,0,2,2263,43389,13573,10144,71,71,0,71,0.00,2.50,0.81,0.12
2016-05-05 19:30:00,2,25977,22,0.00,2,2,0,2,17688,41467,7667,24428,0,77,33,0,0.00,0.00,0.00,0.00
2016-05-05 19:40:00,2,34732,16,0.00,2,2,0,2,20183,49644,10916,38337,0,78,31,0,0.00,0.00,0.00,0.00
2016-05-05 19:50:00,2,18149,53,0.02,2,2,0,2,10728,36771,8011,14298,0,77,35,74,0.00,0.05,0.02,0.00
2016-05-05 20:00:00,2,16904,77,0.02,2,2,0,2,12703,23189,3230,17432,77,77,0,77,0.00,0.15,0.05,0.00
2016-05-05 20:10:00,2,15707,75,0.04,2,2,0,2,11213,19291,2951,15472,71,77,3,77,0.00,0.10,0.04,0.03
2016-05-05 20:20:00,2,7279,73,0.70,2,2,0,2,4266,13114,2425,6636,71,77,3,71,0.05,1.55,0.51,0.60
2016-05-05 20:30:00,2,4999,71,0.84,2,2,0,2,2713,9539,2167,4158,71,71,0,71,0.20,1.80,0.48,0.68
2016-05-05 20:40:00,2,3348,71,1.41,2,2,0,2,1964,5015,913,3255,71,71,0,71,0.80,2.50,0.63,1.02
2016-05-05 20:50:00,2,2980,71,1.63,2,2,0,2,1642,3942,819,3180,71,71,0,71,0.40,3.25,0.93,1.55
2016-05-05 21:00:00,2,6044,71,0.48,2,2,0,2,2973,9419,1573,5666,71,71,0,71,0.15,1.50,0.39,0.35
2016-05-05 21:10:00,2,14130,72,0.20,2,2,0,2,3343,23256,5833,14894,71,77,2,71,0.00,0.95,0.29,0.05
2016-05-05 21:20:00,2,25598,77,0.07,2,2,0,2,8099,35361,9820,29722,77,78,0,77,0.00,0.55,0.16,0.00
2016-05-05 21:30:00,2,21541,57,0.02,2,2,0,2,12360,33397,6693,20918,0,77,29,71,0.00,0.05,0.02,0.00
2016-05-05 21:40:00,2,37280,0,0.00,2,2,0,2,26105,50000,8206,37379,0,0,0,0,0.00,0.00,0.00,0.00
2016-05-05 21:50:00,2,37578,0,0.00,2,2,0,2,25988,48041,6884,37882,0,0,0,0,0.00,0.00,0.00,0.00
2016-05-05 22:00:00,2,39018,0,0.00,2,2,0,2,26729,50000,8022,38686,0,0,0,0,0.00,0.00,0.00,0.00
2016-05-05 22:10:00,2,21435,0,0.00,2,2,0,2,16070,29119,4394,21650,0,0,0,0,0.00,0.00,0.00,0.00
2016-05-05 22:20:00,2,27997,0,0.00,2,2,0,2,20325,39363,5926,26183,0,0,0,0,0.00,0.00,0.00,0.00
2016-05-05 22:30:00,2,36806,0,0.00,2,2,0,2,23883,50000,8324,35230,0,0,0,0,0.00,0.00,0.00,0.00
2016-05-05 22:40:00,2,32651,0,0.00,2,2,0,2,25604,42472,5014,33710,0,0,0,0,0.00,0.00,0.00,0.00
2016-05-05 22:50:00,2,36782,0,0.00,2,2,0,2,29123,48014,5715,34360,0,0,0,0,0.00,0.00,0.00,0.00
2016-05-05 23:00:00,2,35558,0,0.00,2,2,0,2,25953,42931,6090,38104,0,0,0,0,0.00,0.00,0.00,0.00
2016-05-05 23:10:00,2,38752,0,0.00,2,2,0,2,28482,47623,6355,38353,0,0,0,0,0.00,0.00,0.00,0.00
2016-05-05 23:20:00,2,42589,0,0.00,2,2,0,2,31366,50000,5720,43726,0,0,0,0,0.00,0.00,0.00,0.00
2016-05-05 23:30:00,2,39205,0,0.00,2,2,0,2,32352,50000,5091,38214,0,0,0,0,0.00,0.00,0.00,0.00
2016-05-05 23:40:00,2,43911,0,0.00,2,2,0,2,35740,50000,4885,45184,0,0,0,0,0.00,0.00,0.00,0.00
2016-05-05 23:50:00,2,41836,0,0.00,2,2,0,2,26619,50000,7331,44294,0,0,0,0,0.00,0.00,0.00,0.00
